星链-2270 (STARLINK-2270 )

导读 | 豆包AI

STARLINK-2270是美国SpaceX公司星链(Starlink)星座中的一颗低地球轨道通信卫星,于2021年3月24日发射升空,星链项目旨在通过近地轨道卫星群为全球提供高速互联网接入服务,覆盖网络基础设施缺失的偏远地区、海洋等场景,STARLINK-2270的入轨进一步扩充了星链星座的网络覆盖能力与通信容量,助力全球卫星互联网服务部署。

基本信息
目录编号:
48000
目录名称:
STARLINK-2270
国际标识:
2021-024Z
轨道中心:
EARTH
卫星名称:
星链-2270
卫星全名:
星链-2270 (STARLINK-2270 )
卫星状态:
在轨 (已飞行1816 天)
发射日期:
2021-03-24 UTC
国别 :
美国 (US)
星等 :
--
轨道信息
数据来源 国际轨道数据
星历时间: 2026-03-14T08:00:02+0800
14小时前
查看轨道信息
半长轴: 6884.447km
偏心率: 0.0000496
轨道倾角: 53.110°
近地点辐角 81.430°
升交点赤经 221.961°
平近点角 303.732°
近地点: 505.968km
远地点: 506.652km
周期: 94.747分钟
每日圈数: 15.198448
详细信息
固有亮度:
5
最大亮度:
2.5
卫星平台:
Starlink V1.0
覆盖范围:
全球
运营商:
太空探索技术公司
运营商所在国:
美国
制造商(研发单位):
太空探索技术公司
制造商所在国:
美国
使用方式:
暂无
卫星简介
星链(Starlink)计划是由太空探索技术公司(SpaceX)提出的一个巨型低轨卫星互联网星座项目,计划在2019年至2024年间在太空搭建由约1.2万颗卫星组成的“星链”网络,其中1584颗将部署在地球上空550千米处的近地轨道,并从2020年开始工作。该卫星仍在工作。
2D轨道图
3D轨道图
轨道高度分析图
轨道倾角分析图
轨道综合分析图
查看轨道综合分析图